Location: Marcé
(47.5801°N, 0.3280°W)
Time: 21:05:37
(UTC+01:00)

Vanguard 3 - Pass Details

Date: 08 December 2021
Orbit: 508 x 3260 km, 33.3° (Epoch: 17 January)

Event Time Altitude Azimuth Distance (km) Brightness Sun altitude
Rises 06:50:48 0° 264° (W) 7,161 - -17.0°
Reaches altitude 10° 06:55:51 10° 259° (W) 6,198 - -16.2°
Exits shadow 06:56:07 11° 259° (WSW) 6,147 11.1 -16.1°
Maximum altitude 07:13:54 47° 195° (SSW) 3,550 10.4 -13.3°
Drops below altitude 10° 07:27:18 10° 128° (SE) 4,688 12.4 -11.1°
Sets 07:30:31 0° 122° (ESE) 5,362 13.3 -10.6°
